Year,Month,Day,Hour,Minute,Value (Times are PST for windgust in km/hr)
2007,06,11,00,00,9.60
2007,06,11,00,01,9.60
2007,06,11,00,02,16.10
2007,06,11,00,03,14.50
2007,06,11,00,04,8.10
2007,06,11,00,05,17.70
2007,06,11,00,06,16.10
2007,06,11,00,07,11.30
2007,06,11,00,08,14.50
2007,06,11,00,09,14.50
2007,06,11,00,10,9.60
2007,06,11,00,11,14.50
2007,06,11,00,12,14.50
2007,06,11,00,13,9.60
2007,06,11,00,14,14.50
2007,06,11,00,15,17.70
2007,06,11,00,16,8.10
2007,06,11,00,17,11.30
2007,06,11,00,18,17.70
2007,06,11,00,19,17.70
2007,06,11,00,20,17.70
2007,06,11,00,21,19.30
2007,06,11,00,22,16.10
2007,06,11,00,23,8.10
2007,06,11,00,24,6.40
2007,06,11,00,25,6.40
2007,06,11,00,26,8.10
2007,06,11,00,27,6.40
2007,06,11,00,28,4.80
2007,06,11,00,29,6.40
2007,06,11,00,30,8.10
2007,06,11,00,31,6.40
2007,06,11,00,32,6.40
2007,06,11,00,33,8.10
2007,06,11,00,34,9.60
2007,06,11,00,35,11.30
2007,06,11,00,36,9.60
2007,06,11,00,37,8.10
2007,06,11,00,38,6.40
2007,06,11,00,39,4.80
2007,06,11,00,40,4.80
2007,06,11,00,41,4.80
2007,06,11,00,42,4.80
2007,06,11,00,43,3.20
2007,06,11,00,44,6.40
2007,06,11,00,45,6.40
2007,06,11,00,46,11.30
2007,06,11,00,47,9.60
2007,06,11,00,48,9.60
2007,06,11,00,49,8.10
2007,06,11,00,50,3.20
2007,06,11,00,51,4.80
2007,06,11,00,52,3.20
2007,06,11,00,53,4.80
2007,06,11,00,54,8.10
2007,06,11,00,55,3.20
2007,06,11,00,56,4.80
2007,06,11,00,57,6.40
2007,06,11,00,58,8.10
2007,06,11,00,59,4.80
2007,06,11,01,00,3.20
2007,06,11,01,01,3.20
2007,06,11,01,02,1.60
2007,06,11,01,03,0.00
2007,06,11,01,04,1.60
2007,06,11,01,05,9.60
2007,06,11,01,06,4.80
2007,06,11,01,07,4.80
2007,06,11,01,08,6.40
2007,06,11,01,09,8.10
2007,06,11,01,10,4.80
2007,06,11,01,11,6.40
2007,06,11,01,12,9.60
2007,06,11,01,13,6.40
2007,06,11,01,14,4.80
2007,06,11,01,15,9.60
2007,06,11,01,16,6.40
2007,06,11,01,17,3.20
2007,06,11,01,18,3.20
2007,06,11,01,19,6.40
2007,06,11,01,20,8.10
2007,06,11,01,21,4.80
2007,06,11,01,22,4.80
2007,06,11,01,23,4.80
2007,06,11,01,24,3.20
2007,06,11,01,25,3.20
2007,06,11,01,26,3.20
2007,06,11,01,27,14.50
2007,06,11,01,28,9.60
2007,06,11,01,29,8.10
2007,06,11,01,30,9.60
2007,06,11,01,31,6.40
2007,06,11,01,32,4.80
2007,06,11,01,33,8.10
2007,06,11,01,34,8.10
2007,06,11,01,35,6.40
2007,06,11,01,36,6.40
2007,06,11,01,37,4.80
2007,06,11,01,38,4.80
2007,06,11,01,39,4.80
2007,06,11,01,40,4.80
2007,06,11,01,41,9.60
2007,06,11,01,42,4.80
2007,06,11,01,43,3.20
2007,06,11,01,44,3.20
2007,06,11,01,45,1.60
2007,06,11,01,46,3.20
2007,06,11,01,47,3.20
2007,06,11,01,48,8.10
2007,06,11,01,49,6.40
2007,06,11,01,50,3.20
2007,06,11,01,51,6.40
2007,06,11,01,52,8.10
2007,06,11,01,53,3.20
2007,06,11,01,54,4.80
2007,06,11,01,55,8.10
2007,06,11,01,56,6.40
2007,06,11,01,57,9.60
2007,06,11,01,58,8.10
2007,06,11,01,59,4.80
2007,06,11,02,00,3.20
2007,06,11,02,01,6.40
2007,06,11,02,02,8.10
2007,06,11,02,03,4.80
2007,06,11,02,04,3.20
2007,06,11,02,05,0.00
2007,06,11,02,06,4.80
2007,06,11,02,07,4.80
2007,06,11,02,08,4.80
2007,06,11,02,09,6.40
2007,06,11,02,10,3.20
2007,06,11,02,11,3.20
2007,06,11,02,12,0.00
2007,06,11,02,13,1.60
2007,06,11,02,14,1.60
2007,06,11,02,15,0.00
2007,06,11,02,16,0.00
2007,06,11,02,17,1.60
2007,06,11,02,18,0.00
2007,06,11,02,19,0.00
2007,06,11,02,20,0.00
2007,06,11,02,21,0.00
2007,06,11,02,22,0.00
2007,06,11,02,23,1.60
2007,06,11,02,24,1.60
2007,06,11,02,25,1.60
2007,06,11,02,26,3.20
2007,06,11,02,27,4.80
2007,06,11,02,28,3.20
2007,06,11,02,29,1.60
2007,06,11,02,30,0.00
2007,06,11,02,31,0.00
2007,06,11,02,32,0.00
2007,06,11,02,33,3.20
2007,06,11,02,34,1.60
2007,06,11,02,35,1.60
2007,06,11,02,36,3.20
2007,06,11,02,37,4.80
2007,06,11,02,38,6.40
2007,06,11,02,39,4.80
2007,06,11,02,40,1.60
2007,06,11,02,41,3.20
2007,06,11,02,42,4.80
2007,06,11,02,43,1.60
2007,06,11,02,44,3.20
2007,06,11,02,45,3.20
2007,06,11,02,46,1.60
2007,06,11,02,47,1.60
2007,06,11,02,48,1.60
2007,06,11,02,49,0.00
2007,06,11,02,50,0.00
2007,06,11,02,51,0.00
2007,06,11,02,52,1.60
2007,06,11,02,53,0.00
2007,06,11,02,54,0.00
2007,06,11,02,55,0.00
2007,06,11,02,56,0.00
2007,06,11,02,57,0.00
2007,06,11,02,58,0.00
2007,06,11,02,59,3.20
2007,06,11,03,00,3.20
2007,06,11,03,01,3.20
2007,06,11,03,02,3.20
2007,06,11,03,03,1.60
2007,06,11,03,04,4.80
2007,06,11,03,05,6.40
2007,06,11,03,06,4.80
2007,06,11,03,07,4.80
2007,06,11,03,08,4.80
2007,06,11,03,09,4.80
2007,06,11,03,10,3.20
2007,06,11,03,11,3.20
2007,06,11,03,12,3.20
2007,06,11,03,13,6.40
2007,06,11,03,14,4.80
2007,06,11,03,15,1.60
2007,06,11,03,16,0.00
2007,06,11,03,17,0.00
2007,06,11,03,18,1.60
2007,06,11,03,19,0.00
2007,06,11,03,20,1.60
2007,06,11,03,21,0.00
2007,06,11,03,22,1.60
2007,06,11,03,23,0.00
2007,06,11,03,24,3.20
2007,06,11,03,25,1.60
2007,06,11,03,26,6.40
2007,06,11,03,27,6.40
2007,06,11,03,28,4.80
2007,06,11,03,29,3.20
2007,06,11,03,30,3.20
2007,06,11,03,31,3.20
2007,06,11,03,32,4.80
2007,06,11,03,33,4.80
2007,06,11,03,34,1.60
2007,06,11,03,35,3.20
2007,06,11,03,36,3.20
2007,06,11,03,37,3.20
2007,06,11,03,38,3.20
2007,06,11,03,39,4.80
2007,06,11,03,40,3.20
2007,06,11,03,41,1.60
2007,06,11,03,42,0.00
2007,06,11,03,43,0.00
2007,06,11,03,44,3.20
2007,06,11,03,45,3.20
2007,06,11,03,46,4.80
2007,06,11,03,47,3.20
2007,06,11,03,48,3.20
2007,06,11,03,49,0.00
2007,06,11,03,50,0.00
2007,06,11,03,51,4.80
2007,06,11,03,52,6.40
2007,06,11,03,53,4.80
2007,06,11,03,54,3.20
2007,06,11,03,55,3.20
2007,06,11,03,56,4.80
2007,06,11,03,57,4.80
2007,06,11,03,58,4.80
2007,06,11,03,59,3.20
2007,06,11,04,00,6.40
2007,06,11,04,01,6.40
2007,06,11,04,02,3.20
2007,06,11,04,03,6.40
2007,06,11,04,04,9.60
2007,06,11,04,05,11.30
2007,06,11,04,06,9.60
2007,06,11,04,07,6.40
2007,06,11,04,08,3.20
2007,06,11,04,09,1.60
2007,06,11,04,10,3.20
2007,06,11,04,11,0.00
2007,06,11,04,12,0.00
2007,06,11,04,13,0.00
2007,06,11,04,14,0.00
2007,06,11,04,15,0.00
2007,06,11,04,16,1.60
2007,06,11,04,17,1.60
2007,06,11,04,18,0.00
2007,06,11,04,19,1.60
2007,06,11,04,20,0.00
2007,06,11,04,21,0.00
2007,06,11,04,22,1.60
2007,06,11,04,23,1.60
2007,06,11,04,24,1.60
2007,06,11,04,25,0.00
2007,06,11,04,26,0.00
2007,06,11,04,27,0.00
2007,06,11,04,28,3.20
2007,06,11,04,29,8.10
2007,06,11,04,30,8.10
2007,06,11,04,31,6.40
2007,06,11,04,32,6.40
2007,06,11,04,33,9.60
2007,06,11,04,34,9.60
2007,06,11,04,35,8.10
2007,06,11,04,36,4.80
2007,06,11,04,37,8.10
2007,06,11,04,38,6.40
2007,06,11,04,39,6.40
2007,06,11,04,40,4.80
2007,06,11,04,41,6.40
2007,06,11,04,42,4.80
2007,06,11,04,43,4.80
2007,06,11,04,44,6.40
2007,06,11,04,45,8.10
2007,06,11,04,46,8.10
2007,06,11,04,47,6.40
2007,06,11,04,48,8.10
2007,06,11,04,49,9.60
2007,06,11,04,50,17.70
2007,06,11,04,51,11.30
2007,06,11,04,52,11.30
2007,06,11,04,53,11.30
2007,06,11,04,54,8.10
2007,06,11,04,55,11.30
2007,06,11,04,56,8.10
2007,06,11,04,57,16.10
2007,06,11,04,58,14.50
2007,06,11,04,59,14.50
2007,06,11,05,00,16.10
2007,06,11,05,01,14.50
2007,06,11,05,02,17.70
2007,06,11,05,03,14.50
2007,06,11,05,04,9.60
2007,06,11,05,05,8.10
2007,06,11,05,06,8.10
2007,06,11,05,07,9.60
2007,06,11,05,08,8.10
2007,06,11,05,09,9.60
2007,06,11,05,10,8.10
2007,06,11,05,11,1.60
2007,06,11,05,12,9.60
2007,06,11,05,13,8.10
2007,06,11,05,14,8.10
2007,06,11,05,15,14.50
2007,06,11,05,16,11.30
2007,06,11,05,17,9.60
2007,06,11,05,18,8.10
2007,06,11,05,19,12.90
2007,06,11,05,20,11.30
2007,06,11,05,21,9.60
2007,06,11,05,22,8.10
2007,06,11,05,23,8.10
2007,06,11,05,24,6.40
2007,06,11,05,25,6.40
2007,06,11,05,26,8.10
2007,06,11,05,27,8.10
2007,06,11,05,28,6.40
2007,06,11,05,29,9.60
2007,06,11,05,30,16.10
2007,06,11,05,31,16.10
2007,06,11,05,32,9.60
2007,06,11,05,33,6.40
2007,06,11,05,34,9.60
2007,06,11,05,35,11.30
2007,06,11,05,36,16.10
2007,06,11,05,37,19.30
2007,06,11,05,38,14.50
2007,06,11,05,39,11.30
2007,06,11,05,40,19.30
2007,06,11,05,41,16.10
2007,06,11,05,42,9.60
2007,06,11,05,43,6.40
2007,06,11,05,44,9.60
2007,06,11,05,45,12.90
2007,06,11,05,46,6.40
2007,06,11,05,47,9.60
2007,06,11,05,48,6.40
2007,06,11,05,49,4.80
2007,06,11,05,50,6.40
2007,06,11,05,51,16.10
2007,06,11,05,52,16.10
2007,06,11,05,53,14.50
2007,06,11,05,54,11.30
2007,06,11,05,55,16.10
2007,06,11,05,56,12.90
2007,06,11,05,57,16.10
2007,06,11,05,58,14.50
2007,06,11,05,59,19.30
2007,06,11,06,00,14.50
2007,06,11,06,01,14.50
2007,06,11,06,02,16.10
2007,06,11,06,03,12.90
2007,06,11,06,04,14.50
2007,06,11,06,05,6.40
2007,06,11,06,06,9.60
2007,06,11,06,07,11.30
2007,06,11,06,08,16.10
2007,06,11,06,09,9.60
2007,06,11,06,10,9.60
2007,06,11,06,11,8.10
2007,06,11,06,12,9.60
2007,06,11,06,13,11.30
2007,06,11,06,14,17.70
2007,06,11,06,15,17.70
2007,06,11,06,16,9.60
2007,06,11,06,17,9.60
2007,06,11,06,18,11.30
2007,06,11,06,19,6.40
2007,06,11,06,20,6.40
2007,06,11,06,21,4.80
2007,06,11,06,22,3.20
2007,06,11,06,23,6.40
2007,06,11,06,24,6.40
2007,06,11,06,25,4.80
2007,06,11,06,26,6.40
2007,06,11,06,27,4.80
2007,06,11,06,28,1.60
2007,06,11,06,29,4.80
2007,06,11,06,30,6.40
2007,06,11,06,31,4.80
2007,06,11,06,32,3.20
2007,06,11,06,33,0.00
2007,06,11,06,34,1.60
2007,06,11,06,35,6.40
2007,06,11,06,36,6.40
2007,06,11,06,37,9.60
2007,06,11,06,38,8.10
2007,06,11,06,39,16.10
2007,06,11,06,40,11.30
2007,06,11,06,41,20.90
2007,06,11,06,42,8.10
2007,06,11,06,43,9.60
2007,06,11,06,44,6.40
2007,06,11,06,45,6.40
2007,06,11,06,46,4.80
2007,06,11,06,47,4.80
2007,06,11,06,48,6.40
2007,06,11,06,49,9.60
2007,06,11,06,50,8.10
2007,06,11,06,51,6.40
2007,06,11,06,52,4.80
2007,06,11,06,53,4.80
2007,06,11,06,54,4.80
2007,06,11,06,55,4.80
2007,06,11,06,56,6.40
2007,06,11,06,57,4.80
2007,06,11,06,58,6.40
2007,06,11,06,59,6.40
2007,06,11,07,00,4.80
2007,06,11,07,01,4.80
2007,06,11,07,02,3.20
2007,06,11,07,03,4.80
2007,06,11,07,04,6.40
2007,06,11,07,05,11.30
2007,06,11,07,06,11.30
2007,06,11,07,07,8.10
2007,06,11,07,08,9.60
2007,06,11,07,09,9.60
2007,06,11,07,10,11.30
2007,06,11,07,11,9.60
2007,06,11,07,12,11.30
2007,06,11,07,13,9.60
2007,06,11,07,14,9.60
2007,06,11,07,15,14.50
2007,06,11,07,16,11.30
2007,06,11,07,17,11.30
2007,06,11,07,18,14.50
2007,06,11,07,19,9.60
2007,06,11,07,20,9.60
2007,06,11,07,21,9.60
2007,06,11,07,22,9.60
2007,06,11,07,23,11.30
2007,06,11,07,24,17.70
2007,06,11,07,25,14.50
2007,06,11,07,26,9.60
2007,06,11,07,27,9.60
2007,06,11,07,28,17.70
2007,06,11,07,29,14.50
2007,06,11,07,30,9.60
2007,06,11,07,31,9.60
2007,06,11,07,32,8.10
2007,06,11,07,33,8.10
2007,06,11,07,34,9.60
2007,06,11,07,35,12.90
2007,06,11,07,36,11.30
2007,06,11,07,37,19.30
2007,06,11,07,38,11.30
2007,06,11,07,39,11.30
2007,06,11,07,40,14.50
2007,06,11,07,41,16.10
2007,06,11,07,42,19.30
2007,06,11,07,43,16.10
2007,06,11,07,44,14.50
2007,06,11,07,45,16.10
2007,06,11,07,46,11.30
2007,06,11,07,47,11.30
2007,06,11,07,48,11.30
2007,06,11,07,49,16.10
2007,06,11,07,50,8.10
2007,06,11,07,51,8.10
2007,06,11,07,52,14.50
2007,06,11,07,53,14.50
2007,06,11,07,54,16.10
2007,06,11,07,55,9.60
2007,06,11,07,56,11.30
2007,06,11,07,57,12.90
2007,06,11,07,58,11.30
2007,06,11,07,59,11.30
2007,06,11,08,00,11.30
2007,06,11,08,01,11.30
2007,06,11,08,02,14.50
2007,06,11,08,03,8.10
2007,06,11,08,04,8.10
2007,06,11,08,05,11.30
2007,06,11,08,06,11.30
2007,06,11,08,07,16.10
2007,06,11,08,08,8.10
2007,06,11,08,09,8.10
2007,06,11,08,10,8.10
2007,06,11,08,11,16.10
2007,06,11,08,12,11.30
2007,06,11,08,13,9.60
2007,06,11,08,14,20.90
2007,06,11,08,15,11.30
2007,06,11,08,16,11.30
2007,06,11,08,17,19.30
2007,06,11,08,18,19.30
2007,06,11,08,19,22.50
2007,06,11,08,20,16.10
2007,06,11,08,21,17.70
2007,06,11,08,22,11.30
2007,06,11,08,23,11.30
2007,06,11,08,24,6.40
2007,06,11,08,25,12.90
2007,06,11,08,26,19.30
2007,06,11,08,27,16.10
2007,06,11,08,28,11.30
2007,06,11,08,29,14.50
2007,06,11,08,30,16.10
2007,06,11,08,31,16.10
2007,06,11,08,32,11.30
2007,06,11,08,33,9.60
2007,06,11,08,34,17.70
2007,06,11,08,35,19.30
2007,06,11,08,36,16.10
2007,06,11,08,37,14.50
2007,06,11,08,38,11.30
2007,06,11,08,39,11.30
2007,06,11,08,40,11.30
2007,06,11,08,41,9.60
2007,06,11,08,42,12.90
2007,06,11,08,43,9.60
2007,06,11,08,44,9.60
2007,06,11,08,45,8.10
2007,06,11,08,46,12.90
2007,06,11,08,47,9.60
2007,06,11,08,48,9.60
2007,06,11,08,49,9.60
2007,06,11,08,50,9.60
2007,06,11,08,51,8.10
2007,06,11,08,52,9.60
2007,06,11,08,53,12.90
2007,06,11,08,54,16.10
2007,06,11,08,55,8.10
2007,06,11,08,56,9.60
2007,06,11,08,57,17.70
2007,06,11,08,58,17.70
2007,06,11,08,59,9.60
2007,06,11,09,00,8.10
2007,06,11,09,01,6.40
2007,06,11,09,02,9.60
2007,06,11,09,03,14.50
2007,06,11,09,04,9.60
2007,06,11,09,05,12.90
2007,06,11,09,06,11.30
2007,06,11,09,07,9.60
2007,06,11,09,08,11.30
2007,06,11,09,09,12.90
2007,06,11,09,10,14.50
2007,06,11,09,11,14.50
2007,06,11,09,12,16.10
2007,06,11,09,13,11.30
2007,06,11,09,14,6.40
2007,06,11,09,15,8.10
2007,06,11,09,16,8.10
2007,06,11,09,17,4.80
2007,06,11,09,18,4.80
2007,06,11,09,19,4.80
2007,06,11,09,20,4.80
2007,06,11,09,21,4.80
2007,06,11,09,22,6.40
2007,06,11,09,23,3.20
2007,06,11,09,24,6.40
2007,06,11,09,25,6.40
2007,06,11,09,26,11.30
2007,06,11,09,27,17.70
2007,06,11,09,28,11.30
2007,06,11,09,29,17.70
2007,06,11,09,30,16.10
2007,06,11,09,31,14.50
2007,06,11,09,32,17.70
2007,06,11,09,33,16.10
2007,06,11,09,34,19.30
2007,06,11,09,35,11.30
2007,06,11,09,36,11.30
2007,06,11,09,37,11.30
2007,06,11,09,38,11.30
2007,06,11,09,39,11.30
2007,06,11,09,40,12.90
2007,06,11,09,41,12.90
2007,06,11,09,42,9.60
2007,06,11,09,43,16.10
2007,06,11,09,44,16.10
2007,06,11,09,45,11.30
2007,06,11,09,46,16.10
2007,06,11,09,47,16.10
2007,06,11,09,48,17.70
2007,06,11,09,49,17.70
2007,06,11,09,50,14.50
2007,06,11,09,51,17.70
2007,06,11,09,52,11.30
2007,06,11,09,53,16.10
2007,06,11,09,54,9.60
2007,06,11,09,55,9.60
2007,06,11,09,56,9.60
2007,06,11,09,57,16.10
2007,06,11,09,58,19.30
2007,06,11,09,59,11.30
2007,06,11,10,00,14.50
2007,06,11,10,01,16.10
2007,06,11,10,02,11.30
2007,06,11,10,03,8.10
2007,06,11,10,04,6.40
2007,06,11,10,05,6.40
2007,06,11,10,06,16.10
2007,06,11,10,07,16.10
2007,06,11,10,08,14.50
2007,06,11,10,09,14.50
2007,06,11,10,10,11.30
2007,06,11,10,11,11.30
2007,06,11,10,12,19.30
2007,06,11,10,13,16.10
2007,06,11,10,14,11.30
2007,06,11,10,15,11.30
2007,06,11,10,16,11.30
2007,06,11,10,17,9.60
2007,06,11,10,18,16.10
2007,06,11,10,19,6.40
2007,06,11,10,20,9.60
2007,06,11,10,21,8.10
2007,06,11,10,22,9.60
2007,06,11,10,23,8.10
2007,06,11,10,24,11.30
2007,06,11,10,25,11.30
2007,06,11,10,26,14.50
2007,06,11,10,27,14.50
2007,06,11,10,28,16.10
2007,06,11,10,29,11.30
2007,06,11,10,30,9.60
2007,06,11,10,31,12.90
2007,06,11,10,32,12.90
2007,06,11,10,33,8.10
2007,06,11,10,34,11.30
2007,06,11,10,35,11.30
2007,06,11,10,36,9.60
2007,06,11,10,37,9.60
2007,06,11,10,38,11.30
2007,06,11,10,39,11.30
2007,06,11,10,40,14.50
2007,06,11,10,41,11.30
2007,06,11,10,42,11.30
2007,06,11,10,43,9.60
2007,06,11,10,44,11.30
2007,06,11,10,45,16.10
2007,06,11,10,46,16.10
2007,06,11,10,47,14.50
2007,06,11,10,48,12.90
2007,06,11,10,49,8.10
2007,06,11,10,50,9.60
2007,06,11,10,51,3.20
2007,06,11,10,52,4.80
2007,06,11,10,53,4.80
2007,06,11,10,54,3.20
2007,06,11,10,55,6.40
2007,06,11,10,56,4.80
2007,06,11,10,57,8.10
2007,06,11,10,58,11.30
2007,06,11,10,59,16.10
2007,06,11,11,00,11.30
2007,06,11,11,01,9.60
2007,06,11,11,02,12.90
2007,06,11,11,03,11.30
2007,06,11,11,04,14.50
2007,06,11,11,05,17.70
2007,06,11,11,06,17.70
2007,06,11,11,07,11.30
2007,06,11,11,08,19.30
2007,06,11,11,09,11.30
2007,06,11,11,10,9.60
2007,06,11,11,11,3.20
2007,06,11,11,12,14.50
2007,06,11,11,13,8.10
2007,06,11,11,14,6.40
2007,06,11,11,15,6.40
2007,06,11,11,16,9.60
2007,06,11,11,17,9.60
2007,06,11,11,18,8.10
2007,06,11,11,19,9.60
2007,06,11,11,20,6.40
2007,06,11,11,21,8.10
2007,06,11,11,22,9.60
2007,06,11,11,23,11.30
2007,06,11,11,24,19.30
2007,06,11,11,25,11.30
2007,06,11,11,26,9.60
2007,06,11,11,27,6.40
2007,06,11,11,28,9.60
2007,06,11,11,29,9.60
2007,06,11,11,30,8.10
2007,06,11,11,31,11.30
2007,06,11,11,32,6.40
2007,06,11,11,33,6.40
2007,06,11,11,34,6.40
2007,06,11,11,35,3.20
2007,06,11,11,36,16.10
2007,06,11,11,37,9.60
2007,06,11,11,38,8.10
2007,06,11,11,39,6.40
2007,06,11,11,40,4.80
2007,06,11,11,41,4.80
2007,06,11,11,42,4.80
2007,06,11,11,43,3.20
2007,06,11,11,44,1.60
2007,06,11,11,45,1.60
2007,06,11,11,46,3.20
2007,06,11,11,47,6.40
2007,06,11,11,48,8.10
2007,06,11,11,49,6.40
2007,06,11,11,50,4.80
2007,06,11,11,51,6.40
2007,06,11,11,52,4.80
2007,06,11,11,53,6.40
2007,06,11,11,54,4.80
2007,06,11,11,55,3.20
2007,06,11,11,56,4.80
2007,06,11,11,57,1.60
2007,06,11,11,58,8.10
2007,06,11,11,59,4.80
2007,06,11,12,00,6.40
2007,06,11,12,01,4.80
2007,06,11,12,02,6.40
2007,06,11,12,03,6.40
2007,06,11,12,04,6.40
2007,06,11,12,05,9.60
2007,06,11,12,06,6.40
2007,06,11,12,07,11.30
2007,06,11,12,08,11.30
2007,06,11,12,09,8.10
2007,06,11,12,10,11.30
2007,06,11,12,11,9.60
2007,06,11,12,12,9.60
2007,06,11,12,13,9.60
2007,06,11,12,14,8.10
2007,06,11,12,15,12.90
2007,06,11,12,16,9.60
2007,06,11,12,17,8.10
2007,06,11,12,18,9.60
2007,06,11,12,19,9.60
2007,06,11,12,20,9.60
2007,06,11,12,21,8.10
2007,06,11,12,22,6.40
2007,06,11,12,23,12.90
2007,06,11,12,24,17.70
2007,06,11,12,25,16.10
2007,06,11,12,26,12.90
2007,06,11,12,27,8.10
2007,06,11,12,28,4.80
2007,06,11,12,29,8.10
2007,06,11,12,30,9.60
2007,06,11,12,31,20.90
2007,06,11,12,32,20.90
2007,06,11,12,33,19.30
2007,06,11,12,34,20.90
2007,06,11,12,35,19.30
2007,06,11,12,36,16.10
2007,06,11,12,37,19.30
2007,06,11,12,38,19.30
2007,06,11,12,39,20.90
2007,06,11,12,40,11.30
2007,06,11,12,41,8.10
2007,06,11,12,42,11.30
2007,06,11,12,43,17.70
2007,06,11,12,44,22.50
2007,06,11,12,45,27.40
2007,06,11,12,46,17.70
2007,06,11,12,47,11.30
2007,06,11,12,48,17.70
2007,06,11,12,49,14.50
2007,06,11,12,50,19.30
2007,06,11,12,51,11.30
2007,06,11,12,52,11.30
2007,06,11,12,53,11.30
2007,06,11,12,54,8.10
2007,06,11,12,55,8.10
2007,06,11,12,56,6.40
2007,06,11,12,57,4.80
2007,06,11,12,58,3.20
2007,06,11,12,59,4.80
2007,06,11,13,00,3.20
2007,06,11,13,01,14.50
2007,06,11,13,02,19.30
2007,06,11,13,03,20.90
2007,06,11,13,04,16.10
2007,06,11,13,05,8.10
2007,06,11,13,06,16.10
2007,06,11,13,07,17.70
2007,06,11,13,08,6.40
2007,06,11,13,09,9.60
2007,06,11,13,10,3.20
2007,06,11,13,11,3.20
2007,06,11,13,12,1.60
2007,06,11,13,13,6.40
2007,06,11,13,14,9.60
2007,06,11,13,15,8.10
2007,06,11,13,16,8.10
2007,06,11,13,17,6.40
2007,06,11,13,18,6.40
2007,06,11,13,19,8.10
2007,06,11,13,20,16.10
2007,06,11,13,21,11.30
2007,06,11,13,22,14.50
2007,06,11,13,23,14.50
2007,06,11,13,24,16.10
2007,06,11,13,25,9.60
2007,06,11,13,26,9.60
2007,06,11,13,27,11.30
2007,06,11,13,28,8.10
2007,06,11,13,29,4.80
2007,06,11,13,30,8.10
2007,06,11,13,31,11.30
2007,06,11,13,32,14.50
2007,06,11,13,33,17.70
2007,06,11,13,34,12.90
2007,06,11,13,35,16.10
2007,06,11,13,36,16.10
2007,06,11,13,37,9.60
2007,06,11,13,38,8.10
2007,06,11,13,39,8.10
2007,06,11,13,40,11.30
2007,06,11,13,41,16.10
2007,06,11,13,42,12.90
2007,06,11,13,43,12.90
2007,06,11,13,44,16.10
2007,06,11,13,45,11.30
2007,06,11,13,46,9.60
2007,06,11,13,47,17.70
2007,06,11,13,48,22.50
2007,06,11,13,49,20.90
2007,06,11,13,50,17.70
2007,06,11,13,51,19.30
2007,06,11,13,52,22.50
2007,06,11,13,53,17.70
2007,06,11,13,54,22.50
2007,06,11,13,55,16.10
2007,06,11,13,56,17.70
2007,06,11,13,57,11.30
2007,06,11,13,58,25.70
2007,06,11,13,59,19.30
2007,06,11,14,00,11.30
2007,06,11,14,01,20.90
2007,06,11,14,02,12.90
2007,06,11,14,03,11.30
2007,06,11,14,04,20.90
2007,06,11,14,05,16.10
2007,06,11,14,06,16.10
2007,06,11,14,07,19.30
2007,06,11,14,08,14.50
2007,06,11,14,09,9.60
2007,06,11,14,10,11.30
2007,06,11,14,11,14.50
2007,06,11,14,12,14.50
2007,06,11,14,13,17.70
2007,06,11,14,14,20.90
2007,06,11,14,15,19.30
2007,06,11,14,16,19.30
2007,06,11,14,17,20.90
2007,06,11,14,18,14.50
2007,06,11,14,19,9.60
2007,06,11,14,20,12.90
2007,06,11,14,21,17.70
2007,06,11,14,22,19.30
2007,06,11,14,23,14.50
2007,06,11,14,24,16.10
2007,06,11,14,25,17.70
2007,06,11,14,26,11.30
2007,06,11,14,27,11.30
2007,06,11,14,28,19.30
2007,06,11,14,29,14.50
2007,06,11,14,30,19.30
2007,06,11,14,31,17.70
2007,06,11,14,32,11.30
2007,06,11,14,33,11.30
2007,06,11,14,34,8.10
2007,06,11,14,35,11.30
2007,06,11,14,36,12.90
2007,06,11,14,37,22.50
2007,06,11,14,38,22.50
2007,06,11,14,39,17.70
2007,06,11,14,40,17.70
2007,06,11,14,41,17.70
2007,06,11,14,42,11.30
2007,06,11,14,43,19.30
2007,06,11,14,44,19.30
2007,06,11,14,45,22.50
2007,06,11,14,46,17.70
2007,06,11,14,47,24.20
2007,06,11,14,48,24.20
2007,06,11,14,49,25.70
2007,06,11,14,50,16.10
2007,06,11,14,51,22.50
2007,06,11,14,52,27.40
2007,06,11,14,53,19.30
2007,06,11,14,54,20.90
2007,06,11,14,55,22.50
2007,06,11,14,56,19.30
2007,06,11,14,57,16.10
2007,06,11,14,58,19.30
2007,06,11,14,59,16.10
2007,06,11,15,00,17.70
2007,06,11,15,01,17.70
2007,06,11,15,02,16.10
2007,06,11,15,03,16.10
2007,06,11,15,04,22.50
2007,06,11,15,05,19.30
2007,06,11,15,06,17.70
2007,06,11,15,07,17.70
2007,06,11,15,08,16.10
2007,06,11,15,09,19.30
2007,06,11,15,10,16.10
2007,06,11,15,11,20.90
2007,06,11,15,12,19.30
2007,06,11,15,13,14.50
2007,06,11,15,14,16.10
2007,06,11,15,15,12.90
2007,06,11,15,16,16.10
2007,06,11,15,17,17.70
2007,06,11,15,18,19.30
2007,06,11,15,19,16.10
2007,06,11,15,20,17.70
2007,06,11,15,21,14.50
2007,06,11,15,22,11.30
2007,06,11,15,23,14.50
2007,06,11,15,24,14.50
2007,06,11,15,25,9.60
2007,06,11,15,26,11.30
2007,06,11,15,27,9.60
2007,06,11,15,28,16.10
2007,06,11,15,29,14.50
2007,06,11,15,30,14.50
2007,06,11,15,31,12.90
2007,06,11,15,32,8.10
2007,06,11,15,33,14.50
2007,06,11,15,34,14.50
2007,06,11,15,35,17.70
2007,06,11,15,36,16.10
2007,06,11,15,37,14.50
2007,06,11,15,38,12.90
2007,06,11,15,39,8.10
2007,06,11,15,40,8.10
2007,06,11,15,41,8.10
2007,06,11,15,42,11.30
2007,06,11,15,43,8.10
2007,06,11,15,44,14.50
2007,06,11,15,45,9.60
2007,06,11,15,46,11.30
2007,06,11,15,47,12.90
2007,06,11,15,48,9.60
2007,06,11,15,49,8.10
2007,06,11,15,50,4.80
2007,06,11,15,51,8.10
2007,06,11,15,52,4.80
2007,06,11,15,53,9.60
2007,06,11,15,54,9.60
2007,06,11,15,55,16.10
2007,06,11,15,56,17.70
2007,06,11,15,57,17.70
2007,06,11,15,58,17.70
2007,06,11,15,59,12.90
2007,06,11,16,00,16.10
2007,06,11,16,01,8.10
2007,06,11,16,02,17.70
2007,06,11,16,03,16.10
2007,06,11,16,04,9.60
2007,06,11,16,05,11.30
2007,06,11,16,06,14.50
2007,06,11,16,07,17.70
2007,06,11,16,08,14.50
2007,06,11,16,09,12.90
2007,06,11,16,10,11.30
2007,06,11,16,11,11.30
2007,06,11,16,12,11.30
2007,06,11,16,13,9.60
2007,06,11,16,14,9.60
2007,06,11,16,15,11.30
2007,06,11,16,16,11.30
2007,06,11,16,17,11.30
2007,06,11,16,18,11.30
2007,06,11,16,19,16.10
2007,06,11,16,20,16.10
2007,06,11,16,21,11.30
2007,06,11,16,22,8.10
2007,06,11,16,23,16.10
2007,06,11,16,24,16.10
2007,06,11,16,25,14.50
2007,06,11,16,26,14.50
2007,06,11,16,27,16.10
2007,06,11,16,28,9.60
2007,06,11,16,29,11.30
2007,06,11,16,30,16.10
2007,06,11,16,31,16.10
2007,06,11,16,32,8.10
2007,06,11,16,33,4.80
2007,06,11,16,34,6.40
2007,06,11,16,35,6.40
2007,06,11,16,36,11.30
2007,06,11,16,37,11.30
2007,06,11,16,38,8.10
2007,06,11,16,39,6.40
2007,06,11,16,40,8.10
2007,06,11,16,41,4.80
2007,06,11,16,42,9.60
2007,06,11,16,43,8.10
2007,06,11,16,44,14.50
2007,06,11,16,45,17.70
2007,06,11,16,46,14.50
2007,06,11,16,47,6.40
2007,06,11,16,48,6.40
2007,06,11,16,49,6.40
2007,06,11,16,50,11.30
2007,06,11,16,51,6.40
2007,06,11,16,52,4.80
2007,06,11,16,53,6.40
2007,06,11,16,54,6.40
2007,06,11,16,55,8.10
2007,06,11,16,56,8.10
2007,06,11,16,57,6.40
2007,06,11,16,58,11.30
2007,06,11,16,59,8.10
2007,06,11,17,00,6.40
2007,06,11,17,01,9.60
2007,06,11,17,02,8.10
2007,06,11,17,03,9.60
2007,06,11,17,04,8.10
2007,06,11,17,05,9.60
2007,06,11,17,06,11.30
2007,06,11,17,07,11.30
2007,06,11,17,08,9.60
2007,06,11,17,09,11.30
2007,06,11,17,10,8.10
2007,06,11,17,11,9.60
2007,06,11,17,12,11.30
2007,06,11,17,13,17.70
2007,06,11,17,14,17.70
2007,06,11,17,15,8.10
2007,06,11,17,16,9.60
2007,06,11,17,17,8.10
2007,06,11,17,18,4.80
2007,06,11,17,19,8.10
2007,06,11,17,20,8.10
2007,06,11,17,21,3.20
2007,06,11,17,22,3.20
2007,06,11,17,23,4.80
2007,06,11,17,24,4.80
2007,06,11,17,25,6.40
2007,06,11,17,26,4.80
2007,06,11,17,27,4.80
2007,06,11,17,28,1.60
2007,06,11,17,29,3.20
2007,06,11,17,30,1.60
2007,06,11,17,31,0.00
2007,06,11,17,32,0.00
2007,06,11,17,33,1.60
2007,06,11,17,34,3.20
2007,06,11,17,35,3.20
2007,06,11,17,36,4.80
2007,06,11,17,37,3.20
2007,06,11,17,38,6.40
2007,06,11,17,39,3.20
2007,06,11,17,40,4.80
2007,06,11,17,41,6.40
2007,06,11,17,42,8.10
2007,06,11,17,43,9.60
2007,06,11,17,44,6.40
2007,06,11,17,45,6.40
2007,06,11,17,46,4.80